Time,TemperatureF,DewpointF,PressureIn,WindDirection,WindDirectionDegrees,WindSpeedMPH,WindSpeedGustMPH,Humidity,HourlyPrecipIn,Conditions,Clouds,dailyrainin,SoftwareType,DateUTC
2013-08-02 00:02:00,58.0,-99.9,30.00,SSW,199,9.0,11.0,-999,-99.99,,,-99.99,,2013-08-02 08:02:00,
2013-08-02 00:12:00,58.0,-99.9,30.00,SSW,206,11.0,11.0,-999,-99.99,,,-99.99,,2013-08-02 08:12:00,
2013-08-02 00:33:00,58.0,-99.9,30.00,SSW,196,10.0,11.0,-999,-99.99,,,-99.99,,2013-08-02 08:33:00,
2013-08-02 00:44:00,58.0,-99.9,30.00,SSW,198,11.0,12.0,-999,-99.99,,,-99.99,,2013-08-02 08:44:00,
2013-08-02 01:02:00,58.0,-99.9,30.00,SW,219,12.0,13.0,-999,-99.99,,,-99.99,,2013-08-02 09:02:00,
2013-08-02 01:44:00,57.0,-99.9,30.00,SSW,197,9.0,10.0,-999,-99.99,,,-99.99,,2013-08-02 09:44:00,
2013-08-02 02:03:00,57.0,-99.9,30.01,South,191,9.0,11.0,-999,-99.99,,,-99.99,,2013-08-02 10:03:00,
2013-08-02 02:12:00,57.0,-99.9,30.01,South,191,9.0,11.0,-999,-99.99,,,-99.99,,2013-08-02 10:12:00,
2013-08-02 02:23:00,57.0,-99.9,30.01,South,189,8.0,9.0,-999,-99.99,,,-99.99,,2013-08-02 10:23:00,
2013-08-02 02:33:00,56.0,-99.9,30.01,South,180,7.0,9.0,-999,-99.99,,,-99.99,,2013-08-02 10:33:00,
2013-08-02 02:43:00,57.0,-99.9,30.01,South,178,7.0,9.0,-999,-99.99,,,-99.99,,2013-08-02 10:43:00,
2013-08-02 02:52:00,57.0,-99.9,30.01,South,171,6.0,8.0,-999,-99.99,,,-99.99,,2013-08-02 10:52:00,
2013-08-02 03:02:00,57.0,-99.9,30.01,South,183,6.0,8.0,-999,-99.99,,,-99.99,,2013-08-02 11:02:00,
2013-08-02 03:12:00,57.0,-99.9,30.01,South,187,9.0,11.0,-999,-99.99,,,-99.99,,2013-08-02 11:12:00,
2013-08-02 03:33:00,57.0,-99.9,30.01,South,188,8.0,10.0,-999,-99.99,,,-99.99,,2013-08-02 11:33:00,
2013-08-02 03:43:00,56.0,-99.9,30.01,South,187,9.0,11.0,-999,-99.99,,,-99.99,,2013-08-02 11:43:00,
2013-08-02 04:02:00,56.0,-99.9,30.01,South,184,9.0,9.0,-999,-99.99,,,-99.99,,2013-08-02 12:02:00,
2013-08-02 04:12:00,56.0,-99.9,30.01,South,178,9.0,11.0,-999,-99.99,,,-99.99,,2013-08-02 12:12:00,
2013-08-02 04:33:00,57.0,-99.9,30.01,SSW,192,9.0,10.0,-999,-99.99,,,-99.99,,2013-08-02 12:33:00,
2013-08-02 04:43:00,57.0,-99.9,30.01,South,175,6.0,9.0,-999,-99.99,,,-99.99,,2013-08-02 12:43:00,
2013-08-02 04:52:00,57.0,-99.9,30.01,South,180,6.0,8.0,-999,-99.99,,,-99.99,,2013-08-02 12:52:00,
2013-08-02 05:03:00,57.0,-99.9,30.01,SSE,168,4.0,7.0,-999,-99.99,,,-99.99,,2013-08-02 13:03:00,
2013-08-02 05:43:00,56.0,-99.9,30.01,SSE,147,2.0,4.0,-999,-99.99,,,-99.99,,2013-08-02 13:43:00,
2013-08-02 06:02:00,56.0,-99.9,30.01,ESE,119,1.0,2.0,-999,-99.99,,,-99.99,,2013-08-02 14:02:00,
2013-08-02 06:12:00,56.0,-99.9,30.01,SW,226,2.0,2.0,-999,-99.99,,,-99.99,,2013-08-02 14:12:00,
2013-08-02 06:43:00,56.0,-99.9,30.01,East,80,4.0,5.0,-999,-99.99,,,-99.99,,2013-08-02 14:43:00,
2013-08-02 06:53:00,56.0,-99.9,30.00,ENE,77,4.0,5.0,-999,-99.99,,,-99.99,,2013-08-02 14:53:00,
2013-08-02 07:03:00,56.0,-99.9,30.00,ENE,68,5.0,5.0,-999,-99.99,,,-99.99,,2013-08-02 15:03:00,
2013-08-02 07:53:00,56.0,-99.9,29.99,NE,56,4.0,5.0,-999,-99.99,,,-99.99,,2013-08-02 15:53:00,
2013-08-02 08:02:00,56.0,-99.9,29.99,NNE,26,5.0,7.0,-999,-99.99,,,-99.99,,2013-08-02 16:02:00,
2013-08-02 08:32:00,58.0,-99.9,29.99,NNE,13,4.0,7.0,-999,-99.99,,,-99.99,,2013-08-02 16:32:00,
2013-08-02 08:43:00,58.0,-99.9,29.99,NNE,15,6.0,7.0,-999,-99.99,,,-99.99,,2013-08-02 16:43:00,
2013-08-02 08:53:00,58.0,-99.9,29.98,NNE,24,5.0,7.0,-999,-99.99,,,-99.99,,2013-08-02 16:53:00,
2013-08-02 09:02:00,58.0,-99.9,29.98,North,10,6.0,8.0,-999,-99.99,,,-99.99,,2013-08-02 17:02:00,
2013-08-02 09:22:00,58.0,-99.9,29.98,NNE,30,5.0,7.0,-999,-99.99,,,-99.99,,2013-08-02 17:22:00,
2013-08-02 09:43:00,59.0,-99.9,29.98,NNE,22,5.0,6.0,-999,-99.99,,,-99.99,,2013-08-02 17:43:00,
2013-08-02 10:02:00,59.0,-99.9,29.98,NNE,14,6.0,8.0,-999,-99.99,,,-99.99,,2013-08-02 18:02:00,
2013-08-02 11:02:00,59.0,-99.9,29.97,NE,40,6.0,10.0,-999,-99.99,,,-99.99,,2013-08-02 19:02:00,
2013-08-02 11:33:00,60.0,-99.9,29.97,NE,47,7.0,12.0,-999,-99.99,,,-99.99,,2013-08-02 19:33:00,
2013-08-02 11:43:00,60.0,-99.9,29.97,NE,37,8.0,11.0,-999,-99.99,,,-99.99,,2013-08-02 19:43:00,
2013-08-02 12:02:00,61.0,-99.9,29.97,NNE,26,7.0,10.0,-999,-99.99,,,-99.99,,2013-08-02 20:02:00,
2013-08-02 12:23:00,61.0,-99.9,29.97,ENE,58,7.0,11.0,-999,-99.99,,,-99.99,,2013-08-02 20:23:00,
2013-08-02 12:43:00,61.0,-99.9,29.96,NNE,19,9.0,13.0,-999,-99.99,,,-99.99,,2013-08-02 20:43:00,
2013-08-02 12:52:00,61.0,-99.9,29.96,NNE,27,10.0,14.0,-999,-99.99,,,-99.99,,2013-08-02 20:52:00,
2013-08-02 13:03:00,61.0,-99.9,29.96,NNE,24,10.0,13.0,-999,-99.99,,,-99.99,,2013-08-02 21:03:00,
2013-08-02 13:33:00,62.0,-99.9,29.95,NNE,12,11.0,14.0,-999,-99.99,,,-99.99,,2013-08-02 21:33:00,
2013-08-02 13:43:00,63.0,-99.9,29.95,NNE,18,11.0,14.0,-999,-99.99,,,-99.99,,2013-08-02 21:43:00,
2013-08-02 14:03:00,62.0,-99.9,29.95,North,11,9.0,15.0,-999,-99.99,,,-99.99,,2013-08-02 22:03:00,
2013-08-02 15:02:00,63.0,-99.9,29.93,NNE,12,10.0,14.0,-999,-99.99,,,-99.99,,2013-08-02 23:02:00,
2013-08-02 15:12:00,63.0,-99.9,29.93,North,9,8.0,13.0,-999,-99.99,,,-99.99,,2013-08-02 23:12:00,
2013-08-02 15:22:00,63.0,-99.9,29.93,NNE,21,9.0,13.0,-999,-99.99,,,-99.99,,2013-08-02 23:22:00,
2013-08-02 15:44:00,64.0,-99.9,29.91,NE,49,10.0,15.0,-999,-99.99,,,-99.99,,2013-08-02 23:44:00,
2013-08-02 15:53:00,64.0,-99.9,29.91,ENE,59,12.0,16.0,-999,-99.99,,,-99.99,,2013-08-02 23:53:00,
2013-08-02 16:12:00,64.0,-99.9,29.91,NE,51,11.0,13.0,-999,-99.99,,,-99.99,,2013-08-03 00:12:00,
2013-08-02 16:52:00,65.0,-99.9,29.89,NE,41,8.0,13.0,-999,-99.99,,,-99.99,,2013-08-03 00:52:00,
2013-08-02 17:03:00,65.0,-99.9,29.89,NE,41,8.0,13.0,-999,-99.99,,,-99.99,,2013-08-03 01:03:00,
2013-08-02 17:22:00,65.0,-99.9,29.89,ENE,63,12.0,14.0,-999,-99.99,,,-99.99,,2013-08-03 01:22:00,
2013-08-02 17:42:00,68.0,-99.9,29.88,East,90,4.0,11.0,-999,-99.99,,,-99.99,,2013-08-03 01:42:00,
2013-08-02 18:12:00,68.0,-99.9,29.87,SE,141,16.0,21.0,-999,-99.99,,,-99.99,,2013-08-03 02:12:00,
2013-08-02 18:22:00,68.0,-99.9,29.86,ESE,113,9.0,15.0,-999,-99.99,,,-99.99,,2013-08-03 02:22:00,
2013-08-02 18:43:00,68.0,-99.9,29.85,ESE,121,9.0,11.0,-999,-99.99,,,-99.99,,2013-08-03 02:43:00,
2013-08-02 19:43:00,66.0,-99.9,29.84,SE,131,7.0,14.0,-999,-99.99,,,-99.99,,2013-08-03 03:43:00,
2013-08-02 19:53:00,66.0,-99.9,29.84,ESE,118,10.0,12.0,-999,-99.99,,,-99.99,,2013-08-03 03:53:00,
2013-08-02 20:02:00,66.0,-99.9,29.83,SE,127,8.0,10.0,-999,-99.99,,,-99.99,,2013-08-03 04:02:00,
2013-08-02 20:22:00,66.0,-99.9,29.83,ESE,118,8.0,11.0,-999,-99.99,,,-99.99,,2013-08-03 04:22:00,
2013-08-02 21:02:00,65.0,-99.9,29.82,ESE,112,11.0,15.0,-999,-99.99,,,-99.99,,2013-08-03 05:02:00,
2013-08-02 22:02:00,64.0,-99.9,29.80,East,86,8.0,14.0,-999,-99.99,,,-99.99,,2013-08-03 06:02:00,
2013-08-02 22:33:00,64.0,-99.9,29.79,ENE,71,6.0,9.0,-999,-99.99,,,-99.99,,2013-08-03 06:33:00,
2013-08-02 22:42:00,63.0,-99.9,29.79,ENE,58,6.0,8.0,-999,-99.99,,,-99.99,,2013-08-03 06:42:00,
2013-08-02 23:32:00,63.0,-99.9,29.78,East,92,11.0,16.0,-999,-99.99,,,-99.99,,2013-08-03 07:32:00,
2013-08-02 23:43:00,63.0,-99.9,29.78,East,89,11.0,15.0,-999,-99.99,,,-99.99,,2013-08-03 07:43:00,
2013-08-02 23:53:00,63.0,-99.9,29.77,East,86,11.0,15.0,-999,-99.99,,,-99.99,,2013-08-03 07:53:00,